Location: Bright Sky Observatory
(40.7821°N, 74.2425°W)
Time: 18:23:30
(UTC-04:00)

Daily predictions for brighter satellites

Satellite Brightness Start Highest point End
(mag) Time Altitude Azimuth Time Altitude Azimuth Time Altitude Azimuth
Resurs 1-3 3.9 20:09:58 10° SSE 20:14:12 50° ENE 20:18:28 10° N
Cosmos 44 Rocket 3.3 20:13:07 10° NNW 20:17:51 68° NE 20:22:38 10° SE
ATLAS 2AS CENTAUR R/B 3.8 20:12:06 10° SSE 20:18:09 26° ESE 20:24:28 10° NE
Cosmos 839 Rocket 4.0 20:12:33 10° SSW 20:18:46 61° ESE 20:24:53 10° NE
SL-16 R/B 2.8 20:15:08 10° SSE 20:20:08 33° ESE 20:25:10 10° NE
Cosmos 1441 Rocket 3.5 20:17:57 10° NNW 20:21:41 68° W 20:25:23 10° S
Intercosmos 25 Rocket 4.3 20:18:42 10° NNW 20:21:52 42° W 20:24:54 10° SSW
Meteor 1-20 Rocket 4.3 20:17:58 10° S 20:23:33 82° W 20:29:03 10° N
Cosmos 1939 Rocket 3.8 20:21:12 10° SE 20:24:39 29° ENE 20:28:05 10° N
NOSS 3-1 (A) 3.8 20:19:03 10° SW 20:24:46 70° NW 20:31:15 10° NNE
Okean 1 3.2 20:21:51 10° N 20:25:49 78° E 20:29:48 10° S
Cosmos 1452 Rocket 3.5 20:22:49 10° S 20:28:03 71° ESE 20:33:20 10° NNE
Cosmos 405 Rocket 4.5 20:24:32 10° NNW 20:28:04 35° W 20:31:39 10° SSW
Meteor 2-11 Rocket 4.5 20:22:34 10° N 20:28:39 66° E 20:34:39 10° SSE
Cosmos 1536 4.1 20:27:19 10° SE 20:30:33 23° E 20:33:48 10° NE
Cosmos 1420 Rocket 4.1 20:26:23 10° S 20:31:23 52° ESE 20:36:25 10° NNE
Cosmos 1633 2.6 20:28:04 10° S 20:31:41 86° W 20:35:20 10° N
Lacrosse 5 rocket 1.1 20:28:22 10° NW 20:32:03 89° NE 20:35:49 11° SE
Cosmos 407 Rocket 4.1 20:27:28 10° NNW 20:32:45 60° WSW 20:37:57 10° S
S3M 4.2 20:28:42 10° N 20:34:51 56° E 20:41:03 10° SSE
YAOGAN 6 3.7 20:34:18 12° SE 20:37:00 26° ENE 20:39:59 10° NNE
Cosmos 1553 Rocket 4.0 20:31:15 10° N 20:37:22 63° E 20:43:22 10° SSE
Cosmos 921 Rocket 4.0 20:35:53 10° SSW 20:39:56 50° WNW 20:44:01 10° N
MINOTAUR R/B 4.2 20:38:05 10° NNW 20:40:52 76° ENE 20:43:20 12° SSE
Okean 1 Rocket 4.3 20:38:19 10° SE 20:41:39 23° E 20:45:04 10° NE
Cosmos 2266 Rocket 4.4 20:37:43 10° SSE 20:43:12 38° E 20:48:42 10° NNE
Helios 1B rocket 3.5 20:40:10 10° NE 20:43:36 25° E 20:47:00 10° SSE
Cosmos 2360 Rocket 3.4 20:39:43 10° SE 20:43:44 20° E 20:47:45 10° NE
Cosmos 1980 Rocket 3.1 20:39:04 10° SW 20:44:32 52° WNW 20:50:01 10° NNE
Resurs 01 Rocket 2.0 20:40:43 10° S 20:45:09 67° W 20:49:36 10° NNW
Cosmos 1300 Rocket 4.0 20:42:32 10° SSE 20:46:30 37° E 20:50:29 10° NNE
Tiangong 1 1.1 20:50:58 10° WNW 20:53:43 58° N 20:55:23 20° E
SeaSat 1 2.4 20:49:32 10° NNE 20:54:30 83° ESE 20:59:26 10° SSW
Cosmos 1025 Rocket 4.4 20:51:17 10° NNE 20:54:33 21° ENE 20:56:02 18° E
CZ-4B DEB 4.5 20:52:59 13° SSE 20:56:04 66° ENE 20:59:35 10° N
Meteor 1-13 Rocket 4.3 20:50:41 10° N 20:56:40 81° E 21:02:36 10° SSE
Cosmos 2151 Rocket 3.6 20:53:39 10° S 20:58:03 85° W 21:02:28 10° N
Meteor 2-4 Rocket 3.8 20:53:08 10° N 20:58:38 60° ENE 21:03:49 12° SSE
Cosmos 44 3.8 20:56:35 10° NW 21:00:54 51° WSW 21:05:15 11° SSE
Lacrosse 5 2.3 20:56:57 10° SSW 21:01:37 38° SE 21:06:18 10° ENE
NOSS 2-3 (C) 3.8 20:57:42 10° SSW 21:02:15 61° ESE 21:07:31 10° NE
DELTA 2 R/B (1) 4.2 20:59:06 10° W 21:04:24 45° SSW 21:07:58 20° SE
Spot 2 Rocket 4.3 21:00:05 10° S 21:05:03 53° W 21:10:03 10° NNW
Cosmos 1140 Rocket 3.8 21:00:03 10° NNW 21:05:15 67° WSW 21:10:27 10° S
EXPRESS MD2 3.7 21:04:19 10° WSW 21:06:54 51° NNW 21:11:23 10° NE
Cosmos 614 Rocket 4.2 21:05:56 10° NNW 21:11:02 69° WSW 21:15:50 12° S
Atlas Centaur 2 3.6 21:04:14 10° WSW 21:11:30 36° S 21:15:23 21° SE
CZ-4B DEB 2.8 21:16:27 43° E 21:16:42 44° ENE 21:19:28 10° N
Okean 2 4.2 21:15:56 10° NNE 21:19:37 31° ENE 21:20:18 30° E
Cosmos 1536 Rocket 4.0 21:15:36 10° NNW 21:19:52 62° W 21:24:03 10° S
Helios 1A 3.0 21:21:40 22° SSE 21:24:23 87° WSW 21:28:39 10° NNW
Meteor 1-29 2.8 21:22:57 10° NNE 21:26:21 61° E 21:27:13 43° SSE
MetOp-A 4.4 21:25:06 29° SE 21:27:37 52° ENE 21:32:48 10° N
SAR-Lupe-4 3.7 21:27:40 45° ESE 21:28:20 53° ENE 21:31:51 10° N
ERS-1 Rocket 3.1 21:26:23 30° SE 21:28:45 58° ENE 21:33:41 10° N
Cosmos 1741 Rocket 4.1 21:24:52 10° NNW 21:30:06 76° WSW 21:33:28 23° S
H-2A R/B 3.0 21:29:52 26° E 21:31:01 29° ENE 21:35:17 10° N
BREEZE M DEB (TANK) 3.0 21:25:28 10° SW 21:34:02 49° SSE 21:34:57 40° ESE
Envisat 4.4 21:29:36 10° SSW 21:34:15 36° W 21:38:56 10° NNW
Meteor 1-11 Rocket 4.5 21:29:02 10° SSW 21:34:46 56° WNW 21:40:25 10° N
ATLAS 3B R/B 3.1 21:28:37 10° NNW 21:35:06 46° NE 21:38:06 29° ESE
GPS 2-05 Rocket1 4.0 21:33:16 10° WSW 21:35:41 28° SSW 21:35:41 28° SSW
NOSS 2-3 (D) 4.2 21:37:24 10° SW 21:42:02 66° NW 21:47:28 10° NNE
SAR-Lupe-1 3.9 21:45:10 72° ESE 21:45:19 74° ENE 21:48:54 10° N
Abrixas rocket 4.4 21:43:10 10° NW 21:45:46 21° N 21:47:01 17° NE
SL-08 RB Rocket 4.1 21:45:27 43° E 21:46:03 46° ENE 21:50:24 10° N
Cosmos 1975 4.3 21:47:29 24° NE 21:47:29 24° NE 21:49:38 10° NNE
ARGOS 3.2 21:45:46 40° SE 21:47:33 63° ENE 21:52:51 10° N
Terra 3.5 21:50:12 19° ENE 21:50:12 19° ENE 21:53:28 10° NNE
Cosmos 2278 Rocket 4.3 21:49:05 10° NNE 21:51:47 13° NE 21:53:25 12° ENE
Cosmos 2263 Rocket 2.5 21:47:33 10° NNW 21:53:11 62° WSW 21:55:53 31° S
Cosmos 2322 Rocket 3.4 21:47:58 10° SW 21:53:21 42° WNW 21:58:46 10° N
Cosmos 2237 4.3 21:52:58 44° SE 21:54:05 50° ESE 21:59:36 10° NE
Cosmos 1302 Rocket 4.4 21:55:20 42° E 21:55:20 42° E 21:59:57 10° NNE
Cosmos 1844 Rocket 3.5 21:55:57 10° N 22:01:07 35° ENE 22:02:00 33° ENE
Cosmos 1244 Rocket 4.3 21:59:55 34° S 22:02:43 77° E 22:08:51 10° N
Cosmos 1455 Rocket 4.3 22:04:08 30° NE 22:04:08 30° NE 22:06:53 10° NNE
Cosmos 1110 Rocket 4.0 21:58:42 13° SSW 22:03:21 79° WNW 22:08:33 10° NNE
SL-16 R/B 3.8 21:59:01 10° WSW 22:04:09 35° WNW 22:09:21 10° N
Cosmos 1515 3.8 22:04:25 10° N 22:07:55 71° NW 22:07:55 71° NW
ATLAS 2AS CENTAUR R/B 3.3 22:00:46 10° SW 22:08:27 72° NW 22:16:36 10° NNE
Cosmos 2322 3.6 22:08:48 18° SSW 22:13:07 87° WNW 22:18:49 10° NNE
Cosmos 2219 Rocket 3.7 22:16:11 21° ENE 22:16:11 21° ENE 22:18:30 10° NE
Cosmos 1331 Rocket 4.3 22:14:52 20° SSW 22:18:25 65° WNW 22:23:38 10° NNE
Cosmos 1238 Rocket 4.0 22:12:56 10° N 22:19:44 84° E 22:21:22 54° SSE
COSMOS 2428 2.8 22:22:19 59° E 22:22:19 59° E 22:27:30 10° NNE
Cosmos 1500 4.0 22:24:18 51° NW 22:24:18 51° NW 22:27:30 10° N
SL-08 R/B 4.4 22:22:32 59° SSE 22:23:41 73° E 22:30:00 10° NNE
Aureole 3 Rocket 4.3 22:18:12 10° N 22:26:56 89° E 22:28:50 53° S
Cosmos 2360 Rocket 2.8 22:21:44 10° SW 22:27:15 55° WNW 22:32:47 10° NNE
YAOGAN 11 4.3 22:28:58 67° WNW 22:28:58 67° WNW 22:32:54 10° NNW
SPOT 1/Viking Rocket 3.4 22:31:56 80° SSW 22:32:09 83° WSW 22:37:25 10° NNW
Cosmos 1844 4.1 22:27:35 10° NNW 22:33:04 48° ENE 22:33:04 48° ENE
Cosmos 2333 Rocket 3.7 22:38:20 23° NE 22:38:20 23° NE 22:40:41 10° NE
SPOT 5 3.2 22:35:22 56° WSW 22:35:36 56° W 22:40:16 10° NNW
Cosmos 2333 4.2 22:44:54 73° NE 22:44:54 73° NE 22:49:59 10° NNE
Lacrosse 5 3.2 22:39:49 10° WSW 22:44:34 39° NW 22:49:21 10° NNE
BREEZE-M DEB 4.1 22:42:04 10° WNW 22:46:59 40° NNW 22:46:59 40° NNW
Nimbus 7 Rocket 4.4 22:41:56 10° NNE 22:47:48 77° WNW 22:48:39 64° SW
H-2A R/B 3.8 22:50:04 25° NNE 22:50:04 25° NNE 22:52:18 10° N
Cosmos 1503 Rocket 4.4 22:49:02 10° NNW 22:53:32 57° NNE 22:53:32 57° NNE
Cosmos 1745 Rocket 3.9 22:55:56 74° WSW 22:56:20 78° W 23:02:29 10° N
Cosmos 2237 Rocket 4.0 23:00:29 20° NE 23:00:29 20° NE 23:02:21 10° NE
Atlas Centaur 2 4.3 22:54:36 10° WSW 22:58:00 20° SW 22:58:00 20° SW
NOSS 3-2 (A) 3.9 22:57:50 10° NNW 23:05:25 80° NE 23:06:18 71° ESE
USA 238 DEB 3.9 22:59:06 10° NW 23:06:04 59° WSW 23:06:30 58° SW
USA 238 3.9 22:59:12 10° NW 23:06:10 60° WSW 23:06:37 59° SW
H-2A R/B 3.3 23:10:30 32° W 23:10:30 32° W 23:14:50 10° NNW
ATLAS 3B R/B 3.6 23:19:40 10° NW 23:25:20 35° WSW 23:25:20 35° WSW
Terra 3.3 23:29:05 33° NW 23:29:05 33° NW 23:32:05 10° NNW
Cosmos 2278 Rocket 3.0 23:31:08 10° NNW 23:35:15 49° N 23:35:15 49° N
NOSS 3-2 (C) 3.9 23:35:34 10° NW 23:42:56 80° W 23:42:56 80° W
Cosmos 1844 Rocket 4.1 23:39:53 10° NW 23:43:39 30° WNW 23:43:39 30° WNW
